Regional Weather Roundup
Issued by NWS

Home | Current Version | Previous Version | Text Only | Print | Product List | Glossary Off
Versions: 1 2 3 4 5 6 7 8 9 10 11 12 13 14 15 16 17 18 19 20 21 22 23 24 25 26 27 28 29 30 31 32 33 34 35 36 37 38 39 40 41 42 43 44 45 46 47 48 49 50

973
ASUS43 KDTX 262310
RWRMI
MICHIGAN HOURLY REGIONAL WEATHER ROUNDUP
NATIONAL WEATHER SERVICE DETROIT/PONTIAC MI
700 PM EDT TUE JUL 26 2016

NOTE: "FAIR" INDICATES FEW OR NO CLOUDS BELOW 12,000 FEET WITH NO
SIGNIFICANT WEATHER AND/OR OBSTRUCTION TO VISIBILITY.

MIZ047>049-052>055-059>063-066>070-074>076-081>083-270000-
SOUTHEAST LOWER MICHIGAN

CITY           SKY/WX    TMP DP  RH WIND       PRES   REMARKS
ADRIAN         SUNNY     84  60  44 W7        30.00F
ALMA           MOSUNNY   86  60  41 W7        29.99S
ANN ARBOR      PTSUNNY   85  59  41 W8        29.98F
BAD AXE        SUNNY     81  58  46 SE5       29.98F
CARO           SUNNY     86  60  41 NW6       29.97F
DETROIT CITY   MOSUNNY   83  64  52 S9        29.98F
DETROIT        MOSUNNY   84  61  45 S10       29.99S
FLINT          MOSUNNY   89  60  37 SW8       29.98F
GROSSE ILE     SUNNY     80  65  61 S6        29.98F
HOWELL         SUNNY     85  57  38 W5        30.00F

CITY           SKY/WX    TMP DP  RH WIND       PRES   REMARKS
JACKSON        SUNNY     84  60  44 N3        30.01S
LAMBERTVILLE   SUNNY     85  60  42 E3        30.00S
LANSING        SUNNY     85  61  44 W7        30.00F
LAPEER         FAIR      86  57  37 W7        29.98F
MASON          PTSUNNY   84  61  45 W8        30.00S
MONROE         SUNNY     82  64  54 SE6       29.98F
MT. CLEMENS    MOSUNNY   81  64  54 S9        29.96F
PONTIAC        MOSUNNY   85  58  39 W8        29.99F
PORT HURON     SUNNY     81  64  57 CALM      29.98S
TRI CITIES     SUNNY     86  60  41 VRB5      29.98F
MIDLAND        FAIR      86  59  39 W5        29.97S
TROY           CLOUDY    88  58  36 E7        29.99F
SAGINAW HB     SUNNY     86  55  35 NW6       29.97F
$$
MIZ043>046-050>051-056>058-064>065-071>073-077>080-270000-
SOUTHWEST LOWER MICHIGAN

CITY           SKY/WX    TMP DP  RH WIND       PRES   REMARKS
BATTLE CREEK   SUNNY     82  62  50 SW5       30.01F
BENTON HARBOR  SUNNY     81  63  54 N6        30.01F
BIG RAPIDS     SUNNY     83  62  48 NW6       30.00S
COLDWATER      SUNNY     83  58  42 N3        30.01F
FREMONT        FAIR      82  60  46 W8        30.00S
HOLLAND        SUNNY     80  65  59 W9        30.02S
GRAND RAPIDS   MOSUNNY   84  61  45 W8        30.00F
IONIA          PTSUNNY   83  61  46 W9        29.99S
KALAMAZOO      SUNNY     82  64  54 CALM      30.01S
LUDINGTON      SUNNY     80  62  53 SW6       29.99F
MARSHALL       SUNNY     84  61  45 CALM      30.00F
MOUNT PLEASANT SUNNY     86  59  39 W5        29.98S
MUSKEGON       MOSUNNY   81  64  56 W7        30.01F
SOUTH HAVEN    SUNNY     79  65  62 NW7       30.02S
$$
MIZ016>042-270000-
NORTHERN LOWER MICHIGAN

CITY           SKY/WX    TMP DP  RH WIND       PRES   REMARKS
ALPENA         SUNNY     83  59  44 E9        29.95F
BEAVER ISLAND  MOSUNNY   77  66  67 SW12      29.94F
BELLAIRE       SUNNY     84  60  43 W3        29.96F
CADILLAC       SUNNY     82  57  42 W10       30.01S
CHARLEVOIX     SUNNY     82  62  50 SW10      29.98F
FRANKFORT      SUNNY     80  61  52 SW6       29.98F
GAYLORD        SUNNY     83  55  38 W9        29.99F
GRAYLING       SUNNY     86  59  40 NW10      29.99S
HARBOR SPRINGS SUNNY     80  64  57 W6        29.95F
HOUGHTON LAKE  SUNNY     85  60  42 W9        29.99F
MANISTEE       SUNNY     84  60  44 SW6       29.98F
OSCODA         SUNNY     83  61  46 S13G20    29.94F
PELLSTON       SUNNY     82  62  50 W9        29.96F
ROGERS CITY    SUNNY     80  60  50 CALM      29.96F
TRAVERSE CITY  MOSUNNY   87  59  38 W10       29.95F
$$
MIZ007>008-015-270000-
EASTERN UPPER MICHIGAN

CITY           SKY/WX    TMP DP  RH WIND       PRES   REMARKS
KINROSS        SUNNY     81  62  52 W10       29.94F
MACKINAC ISLAN SUNNY     77  64  64 SW14G22   29.93F
NEWBERRY       MOSUNNY   81  64  57 S10       29.91F
S. S. MARIE    MOSUNNY   82  65  56 SW8       29.92S
$$
MIZ004>006-011>014-085-270000-
CENTRAL UPPER MICHIGAN

CITY           SKY/WX    TMP DP  RH WIND       PRES   REMARKS
MANISTIQUE     SUNNY     74  68  81 SW7G16    29.92F
ESCANABA       SUNNY     81  68  65 SW14G22   29.89F
SAWYER-GWINN   PTSUNNY   86  61  42 W12G18    29.91F
$$
MIZ001>003-009>011-084-270000-
WESTERN UPPER MICHIGAN

CITY           SKY/WX    TMP DP  RH WIND       PRES   REMARKS
IRON MOUNTAIN  SUNNY     88  59  37 W9        29.92S
HOUGHTON       CLOUDY    76  64  66 NW16      29.92S
COPPER HARBOR    N/A     74  66  76 CALM      29.88F
IRONWOOD       MOSUNNY   81  70  69 NW12      29.92S THUNDER
$$

ABBREVIATIONS USED IN REMARKS
   TC - TEMPERATURE IN CELSIUS
  WCI - WIND CHILL INDEX
   HX - HEAT INDEX
  VSB - VISIBILITY





USA.gov is the U.S. government's official web portal to all federal, state and local government web resources and services.